GW1851 Weather Reports


Display with metric or nautical units.
time (UTC)temp
F
wind
direction
speed
MPH
gust
MPH
rain 1hr
in
rain 24hr
in
rain mn
in
humidity
%
barometer
mb
20260901154929 89 216 0.0 0.0 0.00 0.00 0.00 64 1017.1
20260901154429 90 206 1.0 2.0 0.00 0.00 0.00 67 1017.0
20260901153923 89 225 0.0 0.0 0.00 0.00 0.00 67 1017.0
20260901153418 89 206 0.0 1.0 0.00 0.00 0.00 65 1017.1
20260901152912 88 215 0.0 0.0 0.00 0.00 0.00 68 1017.0
20260901152407 88 239 1.0 2.0 0.00 0.00 0.00 68 1017.2
20260901151901 87 202 0.0 1.0 0.00 0.00 0.00 66 1016.9
20260901151356 87 217 1.0 1.0 0.00 0.00 0.00 67 1017.0
20260901150855 87 196 1.0 2.0 0.00 0.00 0.00 68 1017.1
20260901150353 87 211 1.0 1.0 0.00 0.00 0.00 69 1017.0
20260901145850 86 234 2.0 2.0 0.00 0.00 0.00 70 1016.8
20260901145345 86 241 2.0 2.0 0.00 0.00 0.00 70 1017.1
20260901144840 86 228 2.0 2.0 0.00 0.00 0.00 70 1016.9
20260901144335 85 213 2.0 2.0 0.00 0.00 0.00 72 1016.8
20260901143831 85 154 1.0 1.0 0.00 0.00 0.00 73 1017.2
20260901143327 84 229 2.0 2.0 0.00 0.00 0.00 74 1017.1
20260901142824 84 244 1.0 1.0 0.00 0.00 0.00 71 1017.2
20260901142322 85 241 1.0 2.0 0.00 0.00 0.00 72 1017.1
20260901141817 84 237 2.0 2.0 0.00 0.00 0.00 73 1017.1
20260901141312 84 237 1.0 2.0 0.00 0.00 0.00 74 1017.1
20260901140811 83 202 1.0 1.0 0.00 0.00 0.00 75 1017.0
20260901140309 83 229 2.0 2.0 0.00 0.00 0.00 75 1016.9
20260901135805 82 228 2.0 2.0 0.00 0.00 0.00 76 1017.0
20260901135259 82 242 3.0 3.0 0.00 0.00 0.00 77 1016.9
20260901134755 82 216 1.0 1.0 0.00 0.00 0.00 79 1016.9
20260901134254 82 220 1.0 1.0 0.00 0.00 0.00 78 1016.7
20260901133749 81 212 0.0 1.0 0.00 0.00 0.00 79 1016.7
20260901133249 81 203 0.0 0.0 0.00 0.00 0.00 79 1016.7
20260901132747 81 209 0.0 1.0 0.00 0.00 0.00 79 1017.0
20260901132242 80 213 0.0 0.0 0.00 0.00 0.00 80 1016.9
20260901131737 80 217 0.0 0.0 0.00 0.00 0.00 80 1016.9
20260901131236 79 206 0.0 0.0 0.00 0.00 0.00 81 1016.8
20260901130732 78 216 0.0 0.0 0.00 0.00 0.00 84 1016.8
20260901130231 77 212 0.0 0.0 0.00 0.00 0.00 85 1016.6
20260901125729 76 208 0.0 0.0 0.00 0.00 0.00 87 1016.8
20260901125224 75 210 0.0 0.0 0.00 0.00 0.00 89 1016.6
20260901124719 74 211 0.0 0.0 0.00 0.00 0.00 92 1016.7
20260901124219 74 211 0.0 0.0 0.00 0.00 0.00 92 1016.8
20260901123718 74 212 0.0 0.0 0.00 0.00 0.00 93 1016.8
20260901123213 73 212 0.0 0.0 0.00 0.00 0.00 93 1016.5
20260901122712 73 215 0.0 0.0 0.00 0.00 0.00 94 1016.7
20260901122207 73 212 0.0 0.0 0.00 0.00 0.00 95 1016.5
20260901121701 72 212 0.0 0.0 0.00 0.00 0.00 95 1016.6
20260901121157 72 214 0.0 0.0 0.00 0.00 0.00 96 1016.6
20260901120656 72 214 0.0 0.0 0.00 0.00 0.00 96 1016.4
20260901120151 72 213 0.0 0.0 0.00 0.00 0.00 96 1016.3
20260901115647 72 213 0.0 0.0 0.00 0.00 0.00 97 1016.3
20260901115143 72 213 0.0 0.0 0.00 0.00 0.00 97 1016.1
20260901114639 72 213 0.0 0.0 0.00 0.00 0.00 97 1016.2
20260901114138 72 213 0.0 0.0 0.00 0.00 0.00 97 1016.1
20260901113632 72 213 0.0 0.0 0.00 0.00 0.00 97 1015.9
20260901113127 72 213 0.0 0.0 0.00 0.00 0.00 97 1015.8
20260901112621 72 213 0.0 0.0 0.00 0.00 0.00 97 1016.0
20260901112115 71 213 0.0 0.0 0.00 0.00 0.00 97 1015.7
20260901111615 71 213 0.0 0.0 0.00 0.00 0.00 96 1015.9
20260901111113 72 213 0.0 0.0 0.00 0.00 0.00 96 1015.7
20260901110609 72 213 0.0 0.0 0.00 0.00 0.00 96 1015.9
20260901110104 72 212 0.0 0.0 0.00 0.00 0.00 96 1015.7
20260901105600 72 213 0.0 0.0 0.00 0.00 0.00 96 1015.5
20260901105054 72 213 0.0 0.0 0.00 0.00 0.00 95 1015.6
20260901104551 73 213 0.0 0.0 0.00 0.00 0.00 95 1015.5
20260901104046 73 213 0.0 0.0 0.00 0.00 0.00 94 1015.6
20260901103540 73 212 0.0 0.0 0.00 0.00 0.00 94 1015.7
20260901103036 73 213 0.0 0.0 0.00 0.00 0.00 93 1015.4
20260901102536 73 213 0.0 0.0 0.00 0.00 0.00 93 1015.2
20260901102036 73 213 0.0 0.0 0.00 0.00 0.00 92 1015.2
20260901101532 73 213 0.0 0.0 0.00 0.00 0.00 92 1015.3
20260901101031 74 213 0.0 0.0 0.00 0.00 0.00 91 1015.3
20260901100525 74 213 0.0 0.0 0.00 0.00 0.00 90 1015.4
20260901100025 74 213 0.0 0.0 0.00 0.00 0.00 90 1015.4
20260901095523 74 213 0.0 0.0 0.00 0.00 0.00 90 1015.3
20260901095021 75 213 0.0 0.0 0.00 0.00 0.00 90 1015.3
20260901094516 75 213 0.0 0.0 0.00 0.00 0.00 90 1015.3
20260901094016 75 213 0.0 0.0 0.00 0.00 0.00 89 1015.4
20260901093510 75 217 0.0 0.0 0.00 0.00 0.00 89 1015.5
20260901093005 75 217 0.0 0.0 0.00 0.00 0.00 89 1015.4
20260901092501 75 217 0.0 0.0 0.00 0.00 0.00 88 1015.3
20260901091956 75 217 0.0 0.0 0.00 0.00 0.00 88 1015.4
20260901091451 76 217 0.0 0.0 0.00 0.00 0.00 88 1015.3
20260901090941 76 215 0.0 0.0 0.00 0.00 0.00 88 1015.5
20260901090440 76 215 0.0 0.0 0.00 0.00 0.00 88 1015.4
20260901085936 76 215 0.0 0.0 0.00 0.00 0.00 88 1015.5
20260901085432 76 215 0.0 0.0 0.00 0.00 0.00 87 1015.3
20260901084928 77 215 0.0 0.0 0.00 0.00 0.00 87 1015.4
20260901084424 77 215 0.0 0.0 0.00 0.00 0.00 86 1015.3
20260901083920 77 214 0.0 0.0 0.00 0.00 0.00 86 1015.3
20260901083414 77 213 0.0 0.0 0.00 0.00 0.00 85 1015.2
20260901082912 77 218 0.0 0.0 0.00 0.00 0.00 85 1015.3
20260901082408 77 215 0.0 0.0 0.00 0.00 0.00 84 1015.1
20260901081903 77 220 0.0 0.0 0.00 0.00 0.00 84 1015.3
20260901081358 78 215 0.0 0.0 0.00 0.00 0.00 84 1015.2
20260901080857 78 216 0.0 0.0 0.00 0.00 0.00 84 1015.2
20260901080352 77 218 0.0 0.0 0.00 0.00 0.00 84 1015.4
20260901075846 77 212 0.0 0.0 0.00 0.00 0.00 84 1015.4
20260901075341 77 216 0.0 0.0 0.00 0.00 0.00 85 1015.3
20260901074836 77 216 0.0 0.0 0.00 0.00 0.00 85 1015.2
20260901074331 77 216 0.0 0.0 0.00 0.00 0.00 85 1015.5
20260901073827 77 217 0.0 0.0 0.00 0.00 0.00 85 1015.4
20260901073322 77 217 0.0 0.0 0.00 0.00 0.00 85 1015.3
20260901072818 77 214 0.0 0.0 0.00 0.00 0.00 85 1015.3
20260901072317 77 211 0.0 0.0 0.00 0.00 0.00 85 1015.2
20260901071813 77 217 0.0 0.0 0.00 0.00 0.00 85 1015.1
20260901071311 77 216 0.0 0.0 0.00 0.00 0.00 86 1015.1
20260901070810 78 217 0.0 0.0 0.00 0.00 0.00 85 1015.2
20260901070306 78 213 0.0 0.0 0.00 0.00 0.00 85 1014.8
20260901065805 78 220 0.0 1.0 0.00 0.00 0.00 84 1015.1
20260901065300 78 212 0.0 0.0 0.00 0.00 0.00 85 1015.0
20260901064756 78 216 0.0 0.0 0.00 0.00 0.00 84 1015.1
20260901064252 78 219 0.0 1.0 0.00 0.00 0.00 84 1015.1
20260901063750 78 230 1.0 1.0 0.00 0.00 0.00 83 1015.3
20260901063245 79 210 0.0 0.0 0.00 0.00 0.00 83 1015.1
20260901062741 79 215 1.0 1.0 0.00 0.00 0.00 83 1015.1
20260901062237 79 213 0.0 0.0 0.00 0.00 0.00 83 1015.3
20260901061733 79 215 1.0 1.0 0.00 0.00 0.00 82 1015.2
20260901061232 79 212 0.0 0.0 0.00 0.00 0.00 83 1014.8
20260901060727 79 218 0.0 0.0 0.00 0.00 0.00 82 1015.3
20260901060223 79 214 0.0 0.0 0.00 0.00 0.00 81 1015.0
20260901055718 79 211 0.0 0.0 0.00 0.00 0.00 81 1015.1
20260901055215 80 214 0.0 0.0 0.00 0.00 0.00 81 1015.2
20260901054711 79 215 0.0 0.0 0.00 0.00 0.00 81 1015.3
20260901054208 79 220 0.0 0.0 0.00 0.00 0.00 81 1015.3
20260901053703 79 210 0.0 0.0 0.00 0.00 0.00 82 1015.1
20260901053159 79 214 0.0 0.0 0.00 0.00 0.00 82 1015.1
20260901052654 79 217 0.0 0.0 0.00 0.00 0.00 82 1015.1
20260901052149 79 218 0.0 0.0 0.00 0.00 0.00 83 1014.8
20260901051648 79 214 0.0 0.0 0.00 0.00 0.00 84 1015.1
20260901051148 79 209 0.0 0.0 0.00 0.00 0.00 83 1014.8
20260901050643 79 210 0.0 0.0 0.00 0.00 0.00 83 1014.8
20260901050138 78 210 0.0 0.0 0.00 0.00 0.00 85 1015.0
20260901045638 77 209 0.0 0.0 0.00 0.00 0.00 87 1015.0
20260901045133 77 209 0.0 0.0 0.00 0.00 0.00 89 1014.8
20260901044629 77 209 0.0 0.0 0.00 0.00 0.00 88 1014.8
20260901044125 77 209 0.0 0.0 0.00 0.00 0.00 88 1015.0
20260901043620 78 209 0.0 0.0 0.00 0.00 0.00 88 1014.8
20260901043116 78 209 0.0 0.0 0.00 0.00 0.00 87 1015.1
20260901042615 79 209 0.0 0.0 0.00 0.00 0.00 85 1015.1
20260901042110 80 209 0.0 0.0 0.00 0.00 0.00 83 1014.8
20260901041606 80 212 0.0 0.0 0.00 0.00 0.00 82 1014.8
20260901041101 79 218 0.0 0.0 0.00 0.00 0.00 83 1014.8
20260901040600 79 219 0.0 0.0 0.00 0.00 0.00 84 1014.6
20260901040054 79 218 0.0 0.0 0.00 0.00 0.00 85 1014.8
20260901035552 78 218 0.0 0.0 0.00 0.00 0.00 85 1015.1
20260901035051 78 218 0.0 0.0 0.00 0.00 0.00 87 1014.5
20260901034545 78 218 0.0 0.0 0.00 0.00 0.00 88 1015.2
20260901034046 78 218 0.0 0.0 0.00 0.00 0.00 88 1015.0
20260901033544 79 218 0.0 0.0 0.00 0.00 0.00 87 1015.0
20260901033039 79 218 0.0 0.0 0.00 0.00 0.00 86 1015.2
20260901032538 79 218 0.0 0.0 0.00 0.00 0.00 86 1015.0
20260901032033 79 218 0.0 0.0 0.00 0.00 0.00 85 1015.2
20260901031529 80 218 0.0 0.0 0.00 0.00 0.00 85 1015.3
20260901031024 81 218 0.0 0.0 0.00 0.00 0.00 82 1015.0
20260901030518 82 218 0.0 0.0 0.00 0.00 0.00 79 1014.8
20260901030013 82 218 0.0 0.0 0.00 0.00 0.00 76 1014.8
20260901025507 83 218 0.0 0.0 0.00 0.00 0.00 76 1015.1
20260901025001 83 218 0.0 0.0 0.00 0.00 0.00 76 1014.8
20260901024456 83 218 0.0 0.0 0.00 0.00 0.00 76 1014.8
20260901023954 84 217 0.0 0.0 0.00 0.00 0.00 75 1015.0
20260901023449 84 213 0.0 0.0 0.00 0.00 0.00 75 1015.0
20260901022943 84 215 0.0 0.0 0.00 0.00 0.00 74 1014.7
20260901022440 84 212 0.0 0.0 0.00 0.00 0.00 74 1014.7
20260901021934 84 214 0.0 0.0 0.00 0.00 0.00 73 1015.0
20260901021430 83 214 0.0 0.0 0.00 0.00 0.00 74 1014.7
20260901020925 84 218 0.0 0.0 0.00 0.00 0.00 76 1014.7
20260901020420 84 217 0.0 0.0 0.00 0.00 0.00 75 1014.6
20260901015919 85 214 0.0 0.0 0.00 0.00 0.00 74 1014.7
20260901015416 85 213 0.0 0.0 0.00 0.00 0.00 74 1014.4
20260901014915 85 209 0.0 0.0 0.00 0.00 0.00 75 1014.3
20260901014412 85 213 0.0 0.0 0.00 0.00 0.00 74 1014.5
20260901013907 85 203 0.0 0.0 0.00 0.00 0.00 75 1014.3
20260901013402 84 216 0.0 0.0 0.00 0.00 0.00 75 1014.3
20260901012858 84 214 0.0 0.0 0.00 0.00 0.00 77 1014.4
20260901012353 84 212 0.0 0.0 0.00 0.00 0.00 78 1014.1
20260901011848 83 217 0.0 0.0 0.00 0.00 0.00 80 1014.0
20260901011344 84 217 0.0 0.0 0.00 0.00 0.00 79 1014.1
20260901010842 84 217 0.0 0.0 0.00 0.00 0.00 82 1014.2
20260901010337 84 217 0.0 0.0 0.00 0.00 0.00 81 1014.0
20260901005836 84 217 0.0 0.0 0.00 0.00 0.00 80 1014.0
20260901005331 84 217 0.0 0.0 0.00 0.00 0.00 81 1013.9
20260901004826 84 216 0.0 0.0 0.00 0.00 0.00 82 1014.0
20260901004320 85 216 0.0 0.0 0.00 0.00 0.00 82 1014.0
20260901003814 85 216 0.0 0.0 0.00 0.00 0.00 82 1014.0
20260901003310 85 216 0.0 0.0 0.00 0.00 0.00 81 1013.9
20260901002808 86 216 0.0 0.0 0.00 0.00 0.00 82 1013.9
20260901002305 87 215 0.0 0.0 0.00 0.00 0.00 80 1014.0
20260901001758 88 216 0.0 0.0 0.00 0.00 0.00 76 1013.7
20260901001253 89 215 0.0 0.0 0.00 0.00 0.00 71 1013.8
20260901000743 89 215 0.0 0.0 0.00 0.00 0.00 70 1013.8
20260901000241 89 216 0.0 1.0 0.00 0.00 0.00 70 1013.5
20260831235737 89 217 0.0 0.0 0.00 0.00 0.00 72 1013.5
20260831235233 89 217 0.0 0.0 0.00 0.00 0.00 74 1013.7
20260831234733 89 217 0.0 0.0 0.00 0.00 0.00 76 1013.5
20260831234233 89 217 0.0 0.0 0.00 0.00 0.00 75 1013.7
20260831233728 89 217 0.0 0.0 0.00 0.00 0.00 74 1013.6
20260831233224 91 217 0.0 0.0 0.00 0.00 0.00 72 1013.7
20260831232724 91 217 0.0 0.0 0.00 0.00 0.00 69 1013.5
20260831232220 91 221 0.0 0.0 0.00 0.00 0.00 68 1013.5
20260831231716 91 221 0.0 0.0 0.00 0.00 0.00 68 1013.4
20260831231212 92 219 0.0 1.0 0.00 0.00 0.00 66 1013.6
20260831230712 92 219 0.0 1.0 0.00 0.00 0.00 65 1013.5
20260831230207 92 218 0.0 1.0 0.00 0.00 0.00 66 1013.7
20260831225706 92 217 0.0 0.0 0.00 0.00 0.00 65 1013.5
20260831225202 93 222 0.0 0.0 0.00 0.00 0.00 64 1013.4
20260831224656 93 221 1.0 1.0 0.00 0.00 0.00 63 1013.7
20260831224152 93 218 0.0 1.0 0.00 0.00 0.00 63 1013.5
20260831223647 93 222 1.0 1.0 0.00 0.00 0.00 62 1013.6
20260831223144 94 220 1.0 1.0 0.00 0.00 0.00 62 1013.8
20260831222639 94 220 1.0 1.0 0.00 0.00 0.00 61 1013.6
20260831222135 94 223 1.0 1.0 0.00 0.00 0.00 59 1013.7
20260831221630 94 220 1.0 1.0 0.00 0.00 0.00 59 1013.8
20260831221125 94 223 1.0 2.0 0.00 0.00 0.00 58 1013.5
20260831220621 94 223 1.0 2.0 0.00 0.00 0.00 57 1013.5
20260831220115 94 223 1.0 1.0 0.00 0.00 0.00 61 1013.6
20260831215611 94 220 0.0 0.0 0.00 0.00 0.00 60 1013.7
20260831215106 94 213 0.0 0.0 0.00 0.00 0.00 59 1013.5
20260831214604 94 218 0.0 1.0 0.00 0.00 0.00 57 1013.7
20260831214100 95 223 2.0 2.0 0.00 0.00 0.00 58 1013.5
20260831213556 95 224 1.0 1.0 0.00 0.00 0.00 57 1013.2
20260831213051 95 231 1.0 2.0 0.00 0.00 0.00 55 1013.4
20260831212542 95 197 1.0 1.0 0.00 0.00 0.00 55 1013.3
20260831212037 95 231 2.0 3.0 0.00 0.00 0.00 55 1013.5
20260831211531 95 234 1.0 2.0 0.00 0.00 0.00 54 1013.5
20260831211030 95 212 0.0 1.0 0.00 0.00 0.00 54 1013.3
20260831210526 95 216 1.0 2.0 0.00 0.00 0.00 55 1013.5
20260831210022 96 229 2.0 3.0 0.00 0.00 0.00 52 1013.7
20260831205516 95 234 2.0 2.0 0.00 0.00 0.00 54 1013.7
20260831205012 96 214 1.0 2.0 0.00 0.00 0.00 53 1013.7
20260831204507 96 214 0.0 1.0 0.00 0.00 0.00 52 1013.7
20260831204005 97 222 1.0 2.0 0.00 0.00 0.00 56 1013.7
20260831203505 97 218 0.0 1.0 0.00 0.00 0.00 53 1013.9
20260831203004 97 209 3.0 3.0 0.00 0.00 0.00 52 1013.9
20260831202458 97 176 1.0 2.0 0.00 0.00 0.00 53 1013.6
20260831201958 96 223 2.0 2.0 0.00 0.00 0.00 55 1013.5
20260831201456 96 230 1.0 2.0 0.00 0.00 0.00 54 1013.6
20260831200952 95 213 1.0 1.0 0.00 0.00 0.00 56 1013.6
20260831200448 96 218 1.0 1.0 0.00 0.00 0.00 54 1013.7
20260831195942 96 237 1.0 2.0 0.00 0.00 0.00 53 1013.9
20260831195438 96 226 3.0 3.0 0.00 0.00 0.00 53 1013.9
20260831194932 97 206 3.0 5.0 0.00 0.00 0.00 53 1014.0
20260831194428 97 252 3.0 3.0 0.00 0.00 0.00 53 1013.9
20260831193927 96 225 1.0 2.0 0.00 0.00 0.00 54 1014.1
20260831193423 96 241 1.0 2.0 0.00 0.00 0.00 56 1014.1
20260831192918 97 240 1.0 2.0 0.00 0.00 0.00 54 1013.9
20260831192413 96 178 1.0 2.0 0.00 0.00 0.00 55 1013.9
20260831191908 96 235 3.0 5.0 0.00 0.00 0.00 56 1014.0
20260831191404 96 241 1.0 1.0 0.00 0.00 0.00 56 1014.2
20260831190900 96 205 1.0 2.0 0.00 0.00 0.00 54 1014.3
20260831190400 96 218 1.0 1.0 0.00 0.00 0.00 52 1014.4
20260831185900 95 130 2.0 2.0 0.00 0.00 0.00 52 1014.5
20260831185355 96 233 1.0 2.0 0.00 0.00 0.00 54 1014.4
20260831184854 96 214 3.0 3.0 0.00 0.00 0.00 52 1014.5
20260831184349 95 218 1.0 2.0 0.00 0.00 0.00 59 1014.4
20260831183845 95 217 0.0 0.0 0.00 0.00 0.00 58 1014.6
20260831183344 94 228 3.0 5.0 0.00 0.00 0.00 55 1014.7
20260831182844 95 235 1.0 2.0 0.00 0.00 0.00 55 1014.7
20260831182339 94 223 1.0 2.0 0.00 0.00 0.00 56 1014.7
20260831181834 94 219 1.0 1.0 0.00 0.00 0.00 56 1014.7
20260831181330 93 230 1.0 2.0 0.00 0.00 0.00 55 1015.0
20260831180824 94 225 2.0 2.0 0.00 0.00 0.00 59 1014.6
20260831180319 94 257 2.0 3.0 0.00 0.00 0.00 55 1015.0
20260831175818 93 247 2.0 2.0 0.00 0.00 0.00 57 1015.1
20260831175315 93 243 3.0 3.0 0.00 0.00 0.00 60 1014.8
20260831174810 93 215 2.0 3.0 0.00 0.00 0.00 57 1015.1
20260831174306 93 192 1.0 2.0 0.00 0.00 0.00 57 1015.1
20260831173805 92 216 1.0 2.0 0.00 0.00 0.00 60 1015.4
20260831173259 92 220 3.0 5.0 0.00 0.00 0.00 56 1015.3
20260831172754 92 169 2.0 2.0 0.00 0.00 0.00 58 1015.4
20260831172249 92 225 1.0 1.0 0.00 0.00 0.00 59 1015.2
20260831171743 91 213 1.0 1.0 0.00 0.00 0.00 60 1015.5
20260831171241 91 218 2.0 2.0 0.00 0.00 0.00 58 1015.4
20260831170737 91 229 1.0 1.0 0.00 0.00 0.00 59 1015.3
20260831170233 91 216 1.0 2.0 0.00 0.00 0.00 61 1015.5
20260831165730 91 209 1.0 1.0 0.00 0.00 0.00 60 1015.7
20260831165226 90 227 1.0 2.0 0.00 0.00 0.00 61 1015.8
20260831164721 91 109 2.0 3.0 0.00 0.00 0.00 58 1015.6
20260831164218 90 222 2.0 3.0 0.00 0.00 0.00 62 1015.5
20260831163712 90 214 0.0 1.0 0.00 0.00 0.00 62 1015.7
20260831163208 89 211 0.0 1.0 0.00 0.00 0.00 61 1015.6
20260831162707 89 213 1.0 1.0 0.00 0.00 0.00 63 1015.7
20260831162206 89 232 2.0 2.0 0.00 0.00 0.00 62 1015.5
20260831161701 88 204 1.0 1.0 0.00 0.00 0.00 62 1015.7
20260831161157 88 210 1.0 2.0 0.00 0.00 0.00 62 1015.7
20260831160656 88 198 3.0 5.0 0.00 0.00 0.00 60 1015.5
20260831160152 87 239 2.0 2.0 0.00 0.00 0.00 64 1015.8
20260831155651 88 152 3.0 3.0 0.00 0.00 0.00 61 1015.7
20260831155147 87 214 0.0 1.0 0.00 0.00 0.00 64 1015.9